Regional Weather Roundup
Issued by NWS

Home | Current Version | Previous Version | Text Only | Print | Product List | Glossary On
Versions: 1 2 3 4 5 6 7 8 9 10 11 12 13 14 15 16 17 18 19 20 21 22 23 24 25 26 27 28 29 30 31 32 33 34 35 36 37 38 39 40 41 42 43 44 45 46 47 48 49 50
000
ASUS44 KLUB 281701
RWRTX
WEST TEXAS WEATHER ROUNDUP
NATIONAL WEATHER SERVICE LUBBOCK TX
1200 PM CDT FRI APR 28 2017

NOTE: "FAIR" INDICATES FEW OR NO CLOUDS BELOW 12,000 FEET WITH NO
SIGNIFICANT WEATHER AND/OR OBSTRUCTIONS TO VISIBILITY.

TXZ004-006>008-010-012-014-016-OKZ002-281800-
TEXAS PANHANDLE/OKLAHOMA PANHANDLE

CITY           SKY/WX    TMP DP  RH WIND       PRES   REMARKS
AMARILLO       MOSUNNY   65  39  38 VRB3      29.66F
BORGER         MOSUNNY   64  44  48 CALM      29.66F
CANADIAN       SUNNY     66  46  46 NE10      29.63F
DALHART        PTSUNNY   61  35  37 CALM      29.67R
DUMAS          SUNNY     62  40  43 CALM      29.66S
GUYMON         SUNNY     65  35  33 NE6       29.65F
HEREFORD       MOSUNNY   67  42  40 S6G17     29.68S
PAMPA          MOSUNNY   66  43  43 E5        29.67F
PERRYTON       SUNNY     64  42  45 NE12G20   29.65F
$$

TXZ026-029-035-045-048-281800-
SOUTHERN PANHANDLE/SOUTH PLAINS/ROLLING PLAINS

CITY           SKY/WX    TMP DP  RH WIND       PRES   REMARKS
CHILDRESS      MOSUNNY   72  48  42 NE7       29.65F
SEMINOLE       SUNNY     73  36  25 SE10G17   29.70F
LUBBOCK        CLOUDY    73  40  30 SE12      29.67S
PLAINVIEW      CLOUDY    67  41  37 SE10      29.65F
SNYDER         SUNNY    N/A N/A N/A E9        29.67S
$$

TXZ052-054-060>062-072-078-127-140-154-169-281800-
PERMIAN BASIN/CONCHO VALLEY/BIG COUNTRY/EDWARDS PLATEAU

CITY           SKY/WX    TMP DP  RH WIND       PRES   REMARKS
ABILENE        PTSUNNY   68  53  58 VRB5      29.66S
BIG SPRING     SUNNY     76  46  34 E10       29.69F
JUNCTION       CLOUDY    82  65  56 SW10      29.63F
MIDLAND        SUNNY     79  41  25 E12       29.67F
ODESSA         SUNNY     79  38  22 E10       29.69F
SAN ANGELO     CLOUDY    85  60  42 W9        29.64R
SONORA         CLOUDY    81  63  54 CALM      29.70S
SWEETWATER     SUNNY     76  48  37 NE10G16   29.70S
WINK           SUNNY     81  35  19 E6        29.65F
$$

TXZ055-058-074-075-080-082-281800-
FAR WEST/SOUTHWEST MOUNTAINS/TRANS PECOS

CITY           SKY/WX    TMP DP  RH WIND       PRES   REMARKS
ALPINE         MOSUNNY   81  34  18 SW9G20    29.83F
DRYDEN           N/A     79  61  53 SW6       29.66R
EL PASO        PTSUNNY   76  34  21 SW26G36   29.71F
FORT STOCKTON  SUNNY     84  41  21 MISG      29.69F
GUADALUPE PASS CLOUDY    70  34  26 SW35G54   29.74S
MARFA          SUNNY     79  34  19 W9G21     29.81F
PECOS          SUNNY     81  39  22 E5        29.65F
PRESIDIO       FAIR      83  37  18 CALM      29.73F
$$

TXZ014-016-019-021>030-083-281800
TEXAS TECH WEST TEXAS MESONET/TEXAS PANHANDLE/NORTHERN SOUTH PLAINS

CITY           SKY/WX    TMP DP  RH WIND       PRES   REMARKS
ABERNATHY 5ENE   N/A     69  43  39 SE10      29.68S
AMARILLO 9NNE    N/A     65  41  41 E1        29.66S
AMARILLO 7SSE    N/A     66  40  38 SE7       29.68R
AMHERST 1NE      N/A     66  41  40 SE9       29.68F
BOOTLEG 11WNW    N/A     64  33  32 SE9       29.71S
CANADIAN 6E      N/A     66  44  46 N10       29.63F
CAPROCK CYN SP   N/A     65  46  50 NE5       29.68S
CHILDRESS 2NNE   N/A     70  51  51 N6        29.64F
CLARENDON 2WSW   N/A     66  44  44 SE3       29.67S
CLAUDE 12SW      N/A     67  41  38 SE12      29.67R
DIMMITT 2NE      N/A     65  46  50 SE10      29.67F
FLOYDADA 2NNE    N/A     70  37  30 E9        29.68R
FRIONA 2NE       N/A     66  38  35 SE8       29.68F
GOODLETT 3W      N/A     74  49  41 NE7       29.62F
HART 3N          N/A     65  43  43 SE13      29.68F
HEREFORD 2NW     N/A     65  43  45 S9        29.68S
MCLEAN 1E        N/A     65  45  49 NE6       29.66S
MEMPHIS 1NE      N/A     66  52  59 NE2       29.66F
MULESHOE 2SSW    N/A     70  31  23 SE9       29.68R
OLTON 6S         N/A     66  46  48 SE10      29.67F
PALO DURO SP     N/A     69  39  33 SE9       29.68R
PAMPA 2E         N/A     65  44  47 NE3       29.65F
PLAINVIEW 1S     N/A     68  42  38 SE10      29.66F
SILVERTON 7ESE   N/A     65  41  42 E8        29.68F
TULIA 2ENE       N/A     66  45  45 SE10      29.67F
TURKEY 2WSW      N/A     66  47  50 NE6       29.66S
UMBARGER 3NNE    N/A     66  40  38 E3        29.68S
$$

TXZ033>036-039>041-045>048-281800
TEXAS TECH WEST TEXAS MESONET/SOUTH PLAINS

CITY           SKY/WX    TMP DP  RH WIND       PRES   REMARKS
AIKEN 3WSW       N/A     69  40  34 E12       29.68F
ANDREWS 2NE      N/A     78  33  19 E9        29.69F
ANTON 6SSW       N/A     69  41  36 SE10      29.67F
BROWNFIELD 2S    N/A     74  40  29 SE12      29.68F
DENVR CTY 7WNW   N/A     73  32  22 SE10      29.69F
GAIL 2ESE        N/A     77  45  32 E7        29.66F
LAMESA 2SE       N/A     77  40  26 E8        29.69S
LEVELLAND 4S     N/A     70  37  30 SE12      29.68F
LUBBOCK 3WNW     N/A     71  40  32 SE8       29.67F
MORTON 1ENE      N/A     69  30  23 SE9       29.69S
ODONNELL 1N      N/A     75  35  23 E12       29.67F
PLAINS 3N        N/A     69  32  26 SE13      29.69F
RALLS 1SE        N/A     73  38  28 E9        29.68S
REESE CENTER     N/A     69  43  38 SE9       29.68S
SEAGRAVES 1SW    N/A     75  38  26 SE10      29.69F
SEMINOLE 2NNE    N/A     73  33  23 E13       29.69F
SLATON 2NE       N/A     72  42  33 E9        29.67F
SNYDER 3E        N/A     78  47  33 E10       29.67S
SUNDOWN 8SW      N/A     69  37  30 SE14      29.68F
TAHOKA 3NNE      N/A     75  43  31 E13       29.67F
WOLFFORTH 6SSW   N/A     74  39  28 SE10      29.68S
$$

TXZ031-032-036>038-042>044-281800-
TEXAS TECH WEST TEXAS MESONET/ROLLING PLAINS

CITY           SKY/WX    TMP DP  RH WIND       PRES   REMARKS
ASPERMONT 3NE    N/A     79  46  31 E7        29.64F
FLUVANNA 3WNW    N/A     75  43  31 E8        29.67S
GUTHRIE 10WSW    N/A     77  49  37 NE6       29.64S
HASKELL 1NW      N/A     76  46  34 NE7       29.64R
JAYTON 1SSE      N/A     76  46  33 E9        29.65S
KNOX CITY 3NW    N/A     79  45  29 NE8       29.63F
LK A HENRY 1NW   N/A     77  46  32 E8        29.65F
NORTHFIELD 1S    N/A     72  49  44 N5        29.65S
ODELL 4ENE       N/A     78  50  37 NE8       29.63S
PADUCAH 10SW     N/A     76  46  34 E8        29.64S
POST 1NE         N/A     75  46  35 E8        29.66S
RRING SPRGS 3N   N/A     72  47  41 E7        29.66S
SEYMOUR 3NW      N/A     76  53  44 N9        29.63S
SPUR 1W          N/A     76  40  27 E7        29.65R
WEINERT 2NNE     N/A     76  52  42 N7        29.64S
WHITE RVR 6NE    N/A     76  42  29 E8        29.66S
$$

TXZ052-054-060>062-072-078-127-140-154-169-281800-
TEXAS TECH WEST TEXAS MESONET/PERMIAN BASIN/
CONCHO VALLEY/BIG COUNTRY/EDWARDS PLATEAU

CITY           SKY/WX    TMP DP  RH WIND       PRES   REMARKS
COYANOSA 2N      N/A     81  38  21 NE3       29.67F
JUNCTION 1SSW    N/A     82  66  57 SW7       29.65S
MERTZON 3NNE     N/A     83  59  44 SW7       29.66S
SAN ANGELO 7NW   N/A     79  62  55 W7        29.65R
STRLNG CT 4WSW   N/A     78  48  34 N2        29.67S
ST LAWRNCE 5SW   N/A     81  43  25 NE3       29.67F
SWEETWATR 11SW   N/A     76  51  40 NE13      29.69S
WALL 1E          N/A     84  62  47 W13       29.65R
$$

TXZ055-058-074-075-080-082-281800-
TEXAS TECH WEST TEXAS MESONET/FAR WEST/SOUTHWEST MOUNTAINS/TRANS PECOS

CITY           SKY/WX    TMP DP  RH WIND       PRES   REMARKS
PRSMN GAP BBNP   N/A     86  36  17 W6        29.70S
GUADLPE MTN NP   N/A     66  31  26 W32G41    29.76S
$$



USA.gov is the U.S. government's official web portal to all federal, state and local government web resources and services.